EWG90N EDDH-HEMA

Flight info

Callsign EWG90N
Flight time 4h 45m
Altitude 37000
Route AMLUH2G AMLUH M852 DENIX DCT ZUCKA DCT ARMUT DCT LAMSI/N0452F390 DCT KOMAR DCT EDALA DCT PETAK DCT DIMIS DCT IPTES UL604 SALUN N705 BOPIX N710 TAKRI P751 LXR M999 ELELI V730 MAK
Aircraft A320/M-SDE2E3FGIJ1RWXYZ/LB1

Departure

Time 2026-04-17 09:14
Airport Hamburg Helmut Schmidt Airport (EDDH)

Arrival

Time 2026-04-17 14:00
Airport Marsa Alam International Airport (HEMA)
Time Latitude Longitude Altitude Speed Heading
2026-04-17 08:07 53.62940 10.00294 49 ft 0 kts 122°
2026-04-17 09:06 53.62949 10.00270 44 ft 4 kts 122°
2026-04-17 09:07 53.62964 10.00232 48 ft 4 kts 122°
2026-04-17 09:07 53.62978 10.00193 47 ft 4 kts 122°
2026-04-17 09:07 53.62993 10.00157 45 ft 4 kts 137°
2026-04-17 09:07 53.63015 10.00135 46 ft 4 kts 183°
2026-04-17 09:08 53.63029 10.00140 44 ft 0 kts 213°
2026-04-17 09:10 53.63017 10.00128 47 ft 4 kts 213°
2026-04-17 09:11 53.62998 10.00107 47 ft 3 kts 213°
2026-04-17 09:11 53.62969 10.00075 48 ft 7 kts 213°
2026-04-17 09:11 53.62937 10.00039 48 ft 4 kts 220°
2026-04-17 09:11 53.62919 9.99991 48 ft 6 kts 243°
2026-04-17 09:12 53.62903 9.99937 46 ft 5 kts 243°
2026-04-17 09:12 53.62896 9.99914 47 ft 0 kts 243°
2026-04-17 09:13 53.62895 9.99911 47 ft 2 kts 243°
2026-04-17 09:13 53.62876 9.99848 46 ft 9 kts 243°
2026-04-17 09:13 53.62868 9.99746 45 ft 11 kts 306°
2026-04-17 09:13 53.63036 9.99603 45 ft 58 kts 332°
2026-04-17 09:14 53.63595 9.99117 47 ft 120 kts 333°
2026-04-17 09:14 53.64490 9.98345 54 ft 167 kts 333°
2026-04-17 09:14 53.65577 9.97394 474 ft 178 kts 333°
2026-04-17 09:14 53.66674 9.96438 1223 ft 177 kts 333°
2026-04-17 09:15 53.67801 9.95462 1713 ft 191 kts 333°
2026-04-17 09:15 53.69122 9.94674 2106 ft 212 kts 353°
2026-04-17 09:15 53.70635 9.94652 2592 ft 220 kts
2026-04-17 09:15 53.72183 9.94884 3352 ft 225 kts 18°
2026-04-17 09:16 53.73490 9.96308 4134 ft 228 kts 51°
2026-04-17 09:16 53.74137 9.98727 4869 ft 230 kts 83°
2026-04-17 09:16 53.74236 10.01438 5590 ft 233 kts 92°
2026-04-17 09:16 53.73957 10.04141 6222 ft 239 kts 111°
2026-04-17 09:17 53.73180 10.06751 6548 ft 261 kts 122°
2026-04-17 09:17 53.72238 10.09511 6967 ft 278 kts 121°
2026-04-17 09:17 53.71354 10.12114 7623 ft 283 kts 121°
2026-04-17 09:17 53.70373 10.15019 8408 ft 286 kts 120°
2026-04-17 09:18 53.69710 10.16944 8933 ft 287 kts 124°
2026-04-17 09:18 53.68389 10.19483 9690 ft 289 kts 141°
2026-04-17 09:18 53.66680 10.21276 10401 ft 291 kts 158°
2026-04-17 09:18 53.64701 10.22339 10716 ft 309 kts 166°
2026-04-17 09:19 53.62539 10.23302 10857 ft 332 kts 166°
2026-04-17 09:19 53.60256 10.24322 11272 ft 345 kts 166°
2026-04-17 09:19 53.57922 10.25375 11888 ft 350 kts 166°
2026-04-17 09:19 53.55558 10.26450 12520 ft 354 kts 166°
2026-04-17 09:20 53.53165 10.27543 13156 ft 358 kts 166°
2026-04-17 09:20 53.50747 10.28652 13763 ft 363 kts 166°
2026-04-17 09:20 53.48292 10.29778 14336 ft 367 kts 166°
2026-04-17 09:20 53.45818 10.30910 14898 ft 370 kts 166°
2026-04-17 09:21 53.43317 10.32051 15453 ft 374 kts 166°
2026-04-17 09:21 53.40797 10.33196 16011 ft 377 kts 166°
2026-04-17 09:21 53.38253 10.34345 16557 ft 380 kts 166°
2026-04-17 09:21 53.35690 10.35500 17101 ft 383 kts 166°
2026-04-17 09:22 53.33103 10.36662 17646 ft 386 kts 166°
2026-04-17 09:22 53.30494 10.37831 18181 ft 390 kts 166°
2026-04-17 09:22 53.27863 10.39009 18671 ft 393 kts 167°
2026-04-17 09:22 53.25206 10.40198 19114 ft 396 kts 167°
2026-04-17 09:23 53.22534 10.41395 19556 ft 400 kts 167°
2026-04-17 09:23 53.19837 10.42602 19985 ft 403 kts 167°
2026-04-17 09:23 53.17117 10.43816 20400 ft 406 kts 167°
2026-04-17 09:23 53.14373 10.45036 20823 ft 410 kts 167°
2026-04-17 09:24 53.11599 10.46210 21237 ft 413 kts 169°
2026-04-17 09:24 53.08782 10.47212 21654 ft 415 kts 171°
2026-04-17 09:24 53.05930 10.48086 22056 ft 418 kts 172°
2026-04-17 09:24 53.03050 10.48903 22444 ft 421 kts 173°
2026-04-17 09:25 53.00147 10.49719 22845 ft 425 kts 173°
2026-04-17 09:25 52.97221 10.50565 23238 ft 428 kts 172°
2026-04-17 09:25 52.94277 10.51447 23624 ft 431 kts 172°
2026-04-17 09:25 52.91316 10.52353 23959 ft 434 kts 172°
2026-04-17 09:26 52.88376 10.53265 24275 ft 437 kts 172°
2026-04-17 09:26 52.85377 10.54201 24588 ft 440 kts 172°
2026-04-17 09:26 52.82361 10.55145 24903 ft 442 kts 172°
2026-04-17 09:26 52.79327 10.56093 25214 ft 445 kts 172°
2026-04-17 09:27 52.76274 10.57035 25508 ft 448 kts 172°
2026-04-17 09:27 52.73204 10.57974 25805 ft 450 kts 172°
2026-04-17 09:27 52.70075 10.58933 26100 ft 452 kts 172°
2026-04-17 09:27 52.67013 10.59872 26384 ft 455 kts 172°
2026-04-17 09:28 52.63892 10.60826 26679 ft 457 kts 172°
2026-04-17 09:28 52.60754 10.61782 26957 ft 460 kts 173°
2026-04-17 09:28 52.57599 10.62740 27239 ft 462 kts 173°
2026-04-17 09:28 52.54428 10.63704 27524 ft 465 kts 173°
2026-04-17 09:29 52.51236 10.64672 27807 ft 467 kts 173°
2026-04-17 09:29 52.48034 10.65640 28086 ft 470 kts 173°
2026-04-17 09:29 52.44813 10.66616 28360 ft 472 kts 173°
2026-04-17 09:29 52.41577 10.67598 28628 ft 474 kts 173°
2026-04-17 09:30 52.38326 10.68584 28895 ft 476 kts 173°
2026-04-17 09:30 52.35059 10.69574 29144 ft 478 kts 173°
2026-04-17 09:30 52.31778 10.70564 29382 ft 481 kts 173°
2026-04-17 09:30 52.28484 10.71554 29620 ft 483 kts 173°
2026-04-17 09:31 52.25173 10.72548 29861 ft 485 kts 173°
2026-04-17 09:31 52.21848 10.73543 30103 ft 487 kts 173°
2026-04-17 09:31 52.18509 10.74538 30335 ft 489 kts 173°
2026-04-17 09:31 52.15157 10.75538 30538 ft 490 kts 173°
2026-04-17 09:32 52.11803 10.76543 30827 ft 490 kts 173°
2026-04-17 09:32 52.08457 10.77542 31116 ft 489 kts 173°
2026-04-17 09:32 52.05107 10.78540 31395 ft 489 kts 173°
2026-04-17 09:32 52.01760 10.79534 31668 ft 488 kts 173°
2026-04-17 09:33 51.98422 10.80524 31944 ft 488 kts 173°
2026-04-17 09:33 51.95082 10.81515 32227 ft 488 kts 173°
2026-04-17 09:33 51.91746 10.82502 32507 ft 487 kts 173°
2026-04-17 09:33 51.88411 10.83482 32782 ft 487 kts 173°
2026-04-17 09:34 51.85079 10.84458 33057 ft 486 kts 173°
2026-04-17 09:34 51.81749 10.85435 33332 ft 486 kts 173°
2026-04-17 09:34 51.78420 10.86416 33597 ft 486 kts 173°
2026-04-17 09:34 51.75094 10.87395 33878 ft 486 kts 173°
2026-04-17 09:35 51.71770 10.88373 34131 ft 485 kts 173°
2026-04-17 09:35 51.68466 10.89485 34394 ft 487 kts 167°
2026-04-17 09:35 51.65258 10.91287 34626 ft 489 kts 158°
2026-04-17 09:35 51.62178 10.93615 34849 ft 489 kts 156°
2026-04-17 09:36 51.59105 10.95969 35076 ft 489 kts 156°
2026-04-17 09:36 51.56032 10.98322 35222 ft 488 kts 156°
2026-04-17 09:36 51.49913 11.02981 35257 ft 485 kts 156°
2026-04-17 09:37 51.43803 11.07601 35258 ft 485 kts 156°
2026-04-17 09:37 51.37693 11.12210 35259 ft 485 kts 156°
2026-04-17 09:38 51.31588 11.16812 35258 ft 485 kts 156°
2026-04-17 09:38 51.25519 11.21375 35262 ft 485 kts 156°
2026-04-17 09:39 51.19400 11.25969 35270 ft 485 kts 156°
2026-04-17 09:39 51.13286 11.30541 35265 ft 484 kts 157°
2026-04-17 09:40 51.07212 11.35057 35266 ft 484 kts 157°
2026-04-17 09:40 51.01106 11.39581 35258 ft 484 kts 157°
2026-04-17 09:41 50.94996 11.44106 35252 ft 484 kts 157°
2026-04-17 09:41 50.88883 11.48629 35257 ft 484 kts 157°
2026-04-17 09:42 50.82778 11.53133 35258 ft 484 kts 157°
2026-04-17 09:42 50.76664 11.57621 35247 ft 484 kts 157°
2026-04-17 09:43 50.70589 11.62057 35248 ft 484 kts 157°
2026-04-17 09:43 50.64475 11.66524 35256 ft 484 kts 157°
2026-04-17 09:44 50.58356 11.70982 35256 ft 484 kts 157°
2026-04-17 09:44 50.52214 11.75437 35260 ft 485 kts 157°
2026-04-17 09:45 50.46122 11.79840 35265 ft 485 kts 157°
2026-04-17 09:45 50.39981 11.84275 35278 ft 485 kts 157°
2026-04-17 09:46 50.33846 11.88690 35275 ft 485 kts 157°
2026-04-17 09:46 50.27712 11.93093 35276 ft 484 kts 157°
2026-04-17 09:47 50.21623 11.97448 35272 ft 484 kts 157°
2026-04-17 09:47 50.15483 12.01824 35263 ft 484 kts 158°
2026-04-17 09:48 50.09347 12.06188 35256 ft 484 kts 158°
2026-04-17 09:48 50.03249 12.10523 35243 ft 484 kts 158°
2026-04-17 09:49 49.97109 12.14865 35235 ft 484 kts 158°
2026-04-17 09:49 49.90960 12.19202 35233 ft 485 kts 158°
2026-04-17 09:50 49.84855 12.23512 35239 ft 485 kts 158°
2026-04-17 09:50 49.78693 12.27827 35237 ft 485 kts 158°
2026-04-17 09:51 49.72588 12.32325 35240 ft 486 kts 150°
2026-04-17 09:51 49.67122 12.38534 35234 ft 488 kts 142°
2026-04-17 09:52 49.61807 12.44965 35233 ft 488 kts 142°
2026-04-17 09:52 49.56448 12.51418 35237 ft 488 kts 142°
2026-04-17 09:53 49.51080 12.57849 35240 ft 489 kts 142°
2026-04-17 09:53 49.45738 12.64234 35241 ft 489 kts 143°
2026-04-17 09:54 49.40359 12.70640 35243 ft 489 kts 143°
2026-04-17 09:54 49.34977 12.77042 35241 ft 489 kts 143°
2026-04-17 09:55 49.29588 12.83453 35245 ft 489 kts 143°
2026-04-17 09:55 49.24196 12.89840 35245 ft 489 kts 143°
2026-04-17 09:56 49.18829 12.96158 35245 ft 490 kts 143°
2026-04-17 09:56 49.13426 13.02515 35246 ft 490 kts 143°
2026-04-17 09:57 49.08024 13.08866 35245 ft 490 kts 143°
2026-04-17 09:57 49.02617 13.15183 35246 ft 489 kts 143°
2026-04-17 09:58 48.97209 13.21489 35249 ft 490 kts 143°
2026-04-17 09:58 48.91827 13.27757 35249 ft 490 kts 143°
2026-04-17 09:59 48.86411 13.34035 35250 ft 490 kts 143°
2026-04-17 09:59 48.80980 13.40319 35251 ft 490 kts 143°
2026-04-17 10:00 48.75555 13.46594 35249 ft 490 kts 143°
2026-04-17 10:00 48.70157 13.52802 35249 ft 490 kts 143°
2026-04-17 10:01 48.64678 13.58944 35243 ft 489 kts 148°
2026-04-17 10:01 48.58894 13.64401 35256 ft 489 kts 149°
2026-04-17 10:02 48.54090 13.68929 35258 ft 489 kts 149°
2026-04-17 10:02 48.47369 13.75252 35255 ft 489 kts 149°
2026-04-17 10:03 48.42528 13.79784 35257 ft 489 kts 149°
2026-04-17 10:03 48.36779 13.85163 35261 ft 489 kts 149°
2026-04-17 10:04 48.31002 13.90553 35268 ft 488 kts 149°
2026-04-17 10:04 48.25219 13.95922 35271 ft 488 kts 149°
2026-04-17 10:05 48.19435 14.01281 35269 ft 488 kts 149°
2026-04-17 10:05 48.13654 14.06631 35272 ft 488 kts 149°
2026-04-17 10:06 48.07916 14.11926 35268 ft 487 kts 149°
2026-04-17 10:06 48.02139 14.17249 35262 ft 487 kts 149°
2026-04-17 10:07 47.96367 14.22543 35261 ft 487 kts 149°
2026-04-17 10:07 47.90594 14.27819 35261 ft 486 kts 149°
2026-04-17 10:08 47.84818 14.33078 35265 ft 486 kts 149°
2026-04-17 10:08 47.79051 14.38331 35263 ft 485 kts 149°
2026-04-17 10:09 47.73291 14.43563 35260 ft 485 kts 149°
2026-04-17 10:09 47.67530 14.48778 35260 ft 484 kts 149°
2026-04-17 10:10 47.61809 14.53950 35250 ft 484 kts 149°
2026-04-17 10:11 47.53173 14.61726 35257 ft 484 kts 149°
2026-04-17 10:11 47.47419 14.66888 35256 ft 483 kts 149°
2026-04-17 10:12 47.41660 14.72025 35249 ft 482 kts 150°
2026-04-17 10:12 47.35914 14.77148 35249 ft 482 kts 150°
2026-04-17 10:13 47.30216 14.82229 35247 ft 481 kts 150°
2026-04-17 10:13 47.24480 14.87328 35245 ft 481 kts 150°
2026-04-17 10:14 47.18742 14.92409 35244 ft 481 kts 150°
2026-04-17 10:14 47.13003 14.97481 35238 ft 480 kts 150°
2026-04-17 10:15 47.07311 15.02497 35233 ft 480 kts 150°
2026-04-17 10:15 47.01586 15.07526 35222 ft 479 kts 150°
2026-04-17 10:16 46.95861 15.12540 35223 ft 479 kts 150°
2026-04-17 10:16 46.90137 15.17544 35215 ft 479 kts 150°
2026-04-17 10:17 46.84418 15.22541 35217 ft 478 kts 150°
2026-04-17 10:17 46.78693 15.27527 35221 ft 478 kts 150°
2026-04-17 10:18 46.72977 15.32478 35223 ft 478 kts 150°
2026-04-17 10:18 46.67264 15.37415 35217 ft 477 kts 150°
2026-04-17 10:19 46.61557 15.42344 35217 ft 477 kts 150°
2026-04-17 10:19 46.55848 15.47264 35215 ft 476 kts 150°
2026-04-17 10:20 46.50181 15.52137 35217 ft 476 kts 150°
2026-04-17 10:20 46.44474 15.57030 35218 ft 475 kts 150°
2026-04-17 10:21 46.38776 15.61903 35223 ft 475 kts 150°
2026-04-17 10:21 46.33113 15.66722 35216 ft 474 kts 150°
2026-04-17 10:22 46.27410 15.71573 35221 ft 474 kts 150°
2026-04-17 10:22 46.21735 15.76396 35214 ft 473 kts 150°
2026-04-17 10:23 46.16055 15.81210 35219 ft 473 kts 150°
2026-04-17 10:23 46.10406 15.85982 35217 ft 472 kts 150°
2026-04-17 10:24 46.04737 15.90760 35212 ft 471 kts 150°
2026-04-17 10:24 45.99073 15.95528 35214 ft 471 kts 149°
2026-04-17 10:25 45.93417 16.00277 35224 ft 470 kts 150°
2026-04-17 10:25 45.87765 16.05002 35222 ft 469 kts 150°
2026-04-17 10:26 45.82151 16.09692 35222 ft 469 kts 150°
2026-04-17 10:26 45.76510 16.14392 35221 ft 468 kts 150°
2026-04-17 10:27 45.70878 16.19068 35222 ft 468 kts 149°
2026-04-17 10:27 45.65243 16.23739 35217 ft 467 kts 149°
2026-04-17 10:28 45.59648 16.28376 35216 ft 467 kts 149°
2026-04-17 10:28 45.54028 16.33002 35210 ft 466 kts 149°
2026-04-17 10:29 45.48409 16.37622 35203 ft 465 kts 149°
2026-04-17 10:29 45.42800 16.42234 35201 ft 465 kts 149°
2026-04-17 10:30 45.37204 16.46828 35198 ft 464 kts 149°
2026-04-17 10:30 45.31606 16.51411 35198 ft 463 kts 149°
2026-04-17 10:31 45.26037 16.55936 35197 ft 462 kts 149°
2026-04-17 10:31 45.20448 16.60476 35194 ft 462 kts 149°
2026-04-17 10:32 45.14908 16.64975 35198 ft 461 kts 149°
2026-04-17 10:32 45.09346 16.69487 35189 ft 460 kts 149°
2026-04-17 10:33 45.03787 16.73981 35189 ft 460 kts 149°
2026-04-17 10:33 44.98233 16.78458 35189 ft 459 kts 149°
2026-04-17 10:34 44.92749 16.83050 35190 ft 458 kts 146°
2026-04-17 10:34 44.87486 16.88090 35187 ft 456 kts 143°
2026-04-17 10:35 44.82290 16.93228 35193 ft 456 kts 144°
2026-04-17 10:35 44.77086 16.98218 35193 ft 455 kts 144°
2026-04-17 10:36 44.71828 17.03159 35191 ft 454 kts 144°
2026-04-17 10:36 44.66570 17.08076 35190 ft 453 kts 144°
2026-04-17 10:37 44.61317 17.12994 35188 ft 452 kts 144°
2026-04-17 10:37 44.56083 17.17909 35178 ft 452 kts 144°
2026-04-17 10:38 44.50853 17.22809 35177 ft 451 kts 144°
2026-04-17 10:38 44.45625 17.27685 35172 ft 451 kts 144°
2026-04-17 10:39 44.40424 17.32518 35168 ft 451 kts 144°
2026-04-17 10:39 44.35204 17.37371 35164 ft 450 kts 144°
2026-04-17 10:40 44.29975 17.42228 35164 ft 450 kts 144°
2026-04-17 10:40 44.24752 17.47051 35162 ft 450 kts 144°
2026-04-17 10:41 44.19450 17.51721 35160 ft 451 kts 148°
2026-04-17 10:41 44.13991 17.55933 35159 ft 451 kts 150°
2026-04-17 10:42 44.08452 17.60059 35150 ft 451 kts 150°
2026-04-17 10:42 44.02949 17.64257 35155 ft 451 kts 150°
2026-04-17 10:43 43.97466 17.68518 35142 ft 452 kts 150°
2026-04-17 10:43 43.91970 17.72785 35139 ft 452 kts 150°
2026-04-17 10:44 43.86451 17.77039 35144 ft 453 kts 150°
2026-04-17 10:44 43.80965 17.81252 35143 ft 453 kts 151°
2026-04-17 10:45 43.75437 17.85479 35142 ft 453 kts 151°
2026-04-17 10:45 43.69905 17.89697 35136 ft 453 kts 152°
2026-04-17 10:46 43.64377 17.93911 35134 ft 453 kts 152°
2026-04-17 10:46 43.58887 17.98096 35116 ft 453 kts 152°
2026-04-17 10:47 43.53369 18.02287 35096 ft 453 kts 152°
2026-04-17 10:47 43.48775 18.05765 35081 ft 452 kts 152°
2026-04-17 10:48 43.43258 18.09929 35077 ft 451 kts 152°
2026-04-17 10:48 43.37756 18.14076 35076 ft 451 kts 152°
2026-04-17 10:49 43.32252 18.18222 35078 ft 450 kts 152°
2026-04-17 10:49 43.26795 18.22325 35080 ft 449 kts 152°
2026-04-17 10:50 43.21321 18.26432 35089 ft 448 kts 152°
2026-04-17 10:50 43.15854 18.30530 35091 ft 447 kts 152°
2026-04-17 10:51 43.10403 18.34599 35081 ft 446 kts 152°
2026-04-17 10:51 43.04983 18.38641 35074 ft 445 kts 152°
2026-04-17 10:52 42.99550 18.42687 35066 ft 444 kts 152°
2026-04-17 10:52 42.94119 18.46725 35052 ft 443 kts 153°
2026-04-17 10:53 42.88705 18.50735 35047 ft 443 kts 153°
2026-04-17 10:53 42.83292 18.54744 35039 ft 442 kts 153°
2026-04-17 10:54 42.77911 18.58714 35028 ft 441 kts 153°
2026-04-17 10:54 42.72505 18.62692 35020 ft 441 kts 153°
2026-04-17 10:55 42.67111 18.66656 35004 ft 440 kts 153°
2026-04-17 10:55 42.61767 18.70578 34992 ft 439 kts 153°
2026-04-17 10:56 42.56381 18.74517 34984 ft 439 kts 153°
2026-04-17 10:56 42.51012 18.78445 34979 ft 438 kts 153°
2026-04-17 10:57 42.45651 18.82360 34975 ft 437 kts 153°
2026-04-17 10:57 42.40289 18.86259 34978 ft 436 kts 153°
2026-04-17 10:58 42.34969 18.90116 34979 ft 436 kts 153°
2026-04-17 10:58 42.29634 18.93981 34981 ft 435 kts 153°
2026-04-17 10:59 42.24309 18.97838 34993 ft 434 kts 153°
2026-04-17 10:59 42.18988 19.01684 34994 ft 433 kts 153°
2026-04-17 11:00 42.13680 19.05510 34995 ft 432 kts 154°
2026-04-17 11:00 42.08382 19.09324 34984 ft 431 kts 154°
2026-04-17 11:01 42.03108 19.13107 34980 ft 430 kts 154°
2026-04-17 11:01 41.97814 19.16907 34975 ft 430 kts 153°
2026-04-17 11:02 41.92565 19.20665 34977 ft 430 kts 153°
2026-04-17 11:02 41.87289 19.24438 34978 ft 429 kts 153°
2026-04-17 11:03 41.82022 19.28201 34973 ft 429 kts 153°
2026-04-17 11:03 41.76750 19.31953 34971 ft 429 kts 153°
2026-04-17 11:04 41.71549 19.35882 34963 ft 429 kts 151°
2026-04-17 11:04 41.66436 19.39905 34960 ft 428 kts 151°
2026-04-17 11:05 41.61289 19.43932 34954 ft 428 kts 151°
2026-04-17 11:05 41.56132 19.47906 34948 ft 427 kts 152°
2026-04-17 11:06 41.50971 19.51862 34946 ft 427 kts 152°
2026-04-17 11:06 41.45833 19.55802 35113 ft 426 kts 151°
2026-04-17 11:06 41.43264 19.57771 35252 ft 426 kts 151°
2026-04-17 11:07 41.40694 19.59736 35406 ft 426 kts 151°
2026-04-17 11:07 41.38117 19.61704 35564 ft 428 kts 151°
2026-04-17 11:07 41.35531 19.63680 35713 ft 429 kts 151°
2026-04-17 11:07 41.32941 19.65661 35865 ft 430 kts 151°
2026-04-17 11:08 41.30348 19.67642 36019 ft 430 kts 151°
2026-04-17 11:08 41.27752 19.69621 36176 ft 430 kts 151°
2026-04-17 11:08 41.25157 19.71598 36330 ft 431 kts 150°
2026-04-17 11:08 41.22556 19.73578 36489 ft 431 kts 150°
2026-04-17 11:09 41.19953 19.75558 36644 ft 431 kts 150°
2026-04-17 11:09 41.17349 19.77534 36814 ft 431 kts 150°
2026-04-17 11:09 41.14741 19.79509 36931 ft 432 kts 150°
2026-04-17 11:10 41.06907 19.85435 36933 ft 432 kts 150°
2026-04-17 11:10 41.01691 19.89369 36931 ft 431 kts 150°
2026-04-17 11:11 40.96477 19.93301 36936 ft 431 kts 150°
2026-04-17 11:11 40.91263 19.97226 36933 ft 431 kts 150°
2026-04-17 11:12 40.86050 20.01137 36934 ft 431 kts 151°
2026-04-17 11:12 40.80835 20.05040 36939 ft 431 kts 150°
2026-04-17 11:13 40.75629 20.08945 36943 ft 430 kts 151°
2026-04-17 11:13 40.70423 20.12839 36932 ft 430 kts 151°
2026-04-17 11:14 40.65224 20.16721 36932 ft 430 kts 151°
2026-04-17 11:14 40.60024 20.20596 36940 ft 429 kts 151°
2026-04-17 11:15 40.54825 20.24449 36947 ft 429 kts 151°
2026-04-17 11:15 40.49634 20.28297 36938 ft 428 kts 151°
2026-04-17 11:16 40.44446 20.32132 36937 ft 428 kts 151°
2026-04-17 11:16 40.39258 20.35948 36937 ft 427 kts 151°
2026-04-17 11:17 40.34074 20.39772 36926 ft 427 kts 151°
2026-04-17 11:17 40.28898 20.43592 36927 ft 427 kts 151°
2026-04-17 11:18 40.23716 20.47403 36925 ft 427 kts 151°
2026-04-17 11:18 40.18531 20.51211 36915 ft 427 kts 151°
2026-04-17 11:19 40.13346 20.55005 36916 ft 427 kts 151°
2026-04-17 11:19 40.08165 20.58792 36917 ft 427 kts 151°
2026-04-17 11:20 40.02940 20.62471 36922 ft 426 kts 153°
2026-04-17 11:20 39.97643 20.65961 36919 ft 426 kts 153°
2026-04-17 11:21 39.92344 20.69435 36920 ft 426 kts 153°
2026-04-17 11:21 39.87061 20.72948 36933 ft 426 kts 153°
2026-04-17 11:22 39.81787 20.76477 36943 ft 426 kts 153°
2026-04-17 11:22 39.76515 20.79998 36938 ft 426 kts 153°
2026-04-17 11:23 39.71238 20.83504 36944 ft 426 kts 153°
2026-04-17 11:23 39.65954 20.87004 36944 ft 425 kts 153°
2026-04-17 11:24 39.60689 20.90492 36946 ft 425 kts 153°
2026-04-17 11:24 39.55443 20.93971 36928 ft 425 kts 153°
2026-04-17 11:25 39.50164 20.97456 36925 ft 425 kts 153°
2026-04-17 11:25 39.44878 21.00925 36917 ft 425 kts 153°
2026-04-17 11:26 39.39601 21.04385 36911 ft 426 kts 153°
2026-04-17 11:26 39.34313 21.07853 36902 ft 426 kts 153°
2026-04-17 11:27 39.29040 21.11317 36900 ft 427 kts 153°
2026-04-17 11:27 39.23729 21.14781 36898 ft 428 kts 153°
2026-04-17 11:28 39.18406 21.18249 36895 ft 428 kts 153°
2026-04-17 11:28 39.13093 21.21720 36900 ft 428 kts 153°
2026-04-17 11:29 39.07770 21.25188 36901 ft 428 kts 153°
2026-04-17 11:29 39.02482 21.28625 36903 ft 428 kts 153°
2026-04-17 11:30 38.97161 21.32071 36906 ft 428 kts 153°
2026-04-17 11:30 38.91833 21.35513 36911 ft 427 kts 153°
2026-04-17 11:31 38.87396 21.38388 36910 ft 433 kts 153°
2026-04-17 11:31 38.81065 21.42482 36906 ft 440 kts 153°
2026-04-17 11:32 38.76462 21.45443 36908 ft 441 kts 153°
2026-04-17 11:32 38.70997 21.48940 36904 ft 441 kts 153°
2026-04-17 11:33 38.65530 21.52520 36903 ft 441 kts 152°
2026-04-17 11:33 38.60090 21.56169 36900 ft 441 kts 152°
2026-04-17 11:34 38.54690 21.59774 36894 ft 440 kts 152°
2026-04-17 11:34 38.49241 21.63378 36891 ft 440 kts 152°
2026-04-17 11:35 38.43796 21.66957 36887 ft 440 kts 152°
2026-04-17 11:35 38.38348 21.70538 36886 ft 440 kts 152°
2026-04-17 11:36 38.32944 21.74094 36882 ft 439 kts 152°
2026-04-17 11:36 38.27508 21.77662 36881 ft 439 kts 153°
2026-04-17 11:37 38.22072 21.81221 36883 ft 439 kts 153°
2026-04-17 11:37 38.16639 21.84777 36882 ft 439 kts 153°
2026-04-17 11:38 38.11203 21.88324 36882 ft 439 kts 153°
2026-04-17 11:38 38.05764 21.91867 36881 ft 439 kts 153°
2026-04-17 11:39 38.00360 21.95376 36879 ft 439 kts 153°
2026-04-17 11:39 37.94931 21.98909 36879 ft 439 kts 153°
2026-04-17 11:40 37.89498 22.02437 36877 ft 438 kts 152°
2026-04-17 11:40 37.84053 22.05961 36876 ft 438 kts 152°
2026-04-17 11:41 37.78620 22.09471 36873 ft 438 kts 152°
2026-04-17 11:41 37.73184 22.12970 36870 ft 438 kts 152°
2026-04-17 11:42 37.67774 22.16451 36872 ft 438 kts 152°
2026-04-17 11:42 37.62341 22.19950 36867 ft 438 kts 152°
2026-04-17 11:43 37.56911 22.23445 36872 ft 438 kts 152°
2026-04-17 11:43 37.51478 22.26922 36872 ft 438 kts 153°
2026-04-17 11:44 37.46049 22.30393 36874 ft 437 kts 152°
2026-04-17 11:44 37.40623 22.33870 36875 ft 437 kts 152°
2026-04-17 11:45 37.35196 22.37324 36876 ft 437 kts 153°
2026-04-17 11:45 37.29779 22.40745 36872 ft 437 kts 153°
2026-04-17 11:46 37.24346 22.44182 36871 ft 437 kts 152°
2026-04-17 11:46 37.18940 22.47605 36870 ft 437 kts 153°
2026-04-17 11:47 37.13501 22.51036 36867 ft 437 kts 152°
2026-04-17 11:47 37.08062 22.54463 36860 ft 437 kts 153°
2026-04-17 11:48 37.02620 22.57884 36853 ft 437 kts 153°
2026-04-17 11:48 36.97208 22.61291 36848 ft 438 kts 153°
2026-04-17 11:49 36.91751 22.64716 36845 ft 438 kts 153°
2026-04-17 11:49 36.86287 22.68128 36845 ft 439 kts 153°
2026-04-17 11:50 36.80818 22.71544 36837 ft 439 kts 153°
2026-04-17 11:50 36.75350 22.74952 36838 ft 439 kts 153°
2026-04-17 11:51 36.69904 22.78342 36837 ft 440 kts 153°
2026-04-17 11:51 36.64430 22.81754 36838 ft 440 kts 153°
2026-04-17 11:52 36.58944 22.85169 36836 ft 440 kts 153°
2026-04-17 11:52 36.53459 22.88574 36838 ft 440 kts 153°
2026-04-17 11:53 36.47998 22.91954 36837 ft 441 kts 153°
2026-04-17 11:53 36.42491 22.95352 36837 ft 441 kts 153°
2026-04-17 11:54 36.36989 22.98732 36835 ft 442 kts 153°
2026-04-17 11:54 36.31479 23.02131 36834 ft 442 kts 153°
2026-04-17 11:55 36.25970 23.05538 36834 ft 442 kts 153°
2026-04-17 11:55 36.20455 23.08930 36835 ft 443 kts 153°
2026-04-17 11:56 36.14964 23.12289 36830 ft 443 kts 154°
2026-04-17 11:56 36.09433 23.15666 36833 ft 443 kts 154°
2026-04-17 11:57 36.03891 23.19051 36828 ft 443 kts 154°
2026-04-17 11:57 35.98355 23.22434 36824 ft 444 kts 154°
2026-04-17 11:58 35.92821 23.25818 36825 ft 444 kts 154°
2026-04-17 11:58 35.87273 23.29195 36822 ft 444 kts 154°
2026-04-17 11:59 35.81756 23.32550 36820 ft 445 kts 154°
2026-04-17 11:59 35.76207 23.35916 36817 ft 445 kts 154°
2026-04-17 12:00 35.70628 23.39294 36816 ft 445 kts 154°
2026-04-17 12:00 35.65063 23.42659 36816 ft 446 kts 155°
2026-04-17 12:01 35.59525 23.45997 36811 ft 446 kts 155°
2026-04-17 12:01 35.53932 23.49366 36807 ft 447 kts 155°
2026-04-17 12:02 35.48336 23.52741 36810 ft 447 kts 155°
2026-04-17 12:02 35.42775 23.56089 36796 ft 448 kts 155°
2026-04-17 12:03 35.37159 23.59456 36794 ft 448 kts 155°
2026-04-17 12:03 35.31542 23.62821 36785 ft 449 kts 155°
2026-04-17 12:04 35.25947 23.66169 36776 ft 450 kts 155°
2026-04-17 12:04 35.20320 23.69557 36772 ft 450 kts 155°
2026-04-17 12:05 35.14780 23.73074 36765 ft 451 kts 154°
2026-04-17 12:05 35.09222 23.76668 36759 ft 451 kts 154°
2026-04-17 12:06 35.03650 23.80239 36755 ft 452 kts 154°
2026-04-17 12:06 34.98066 23.83774 36748 ft 452 kts 154°
2026-04-17 12:07 34.92509 23.87274 36744 ft 452 kts 154°
2026-04-17 12:07 34.86910 23.90797 36741 ft 453 kts 154°
2026-04-17 12:08 34.81305 23.94330 36737 ft 454 kts 154°
2026-04-17 12:08 34.75688 23.97872 36735 ft 454 kts 154°
2026-04-17 12:09 34.70071 24.01405 36736 ft 455 kts 154°
2026-04-17 12:09 34.64426 24.04943 36732 ft 456 kts 154°
2026-04-17 12:10 34.58808 24.08465 36729 ft 457 kts 154°
2026-04-17 12:10 34.53150 24.12009 36725 ft 458 kts 155°
2026-04-17 12:11 34.47466 24.15561 36726 ft 459 kts 155°
2026-04-17 12:12 34.38969 24.20856 36720 ft 460 kts 155°
2026-04-17 12:12 34.33268 24.24399 36716 ft 461 kts 155°
2026-04-17 12:13 34.27549 24.27956 36709 ft 462 kts 155°
2026-04-17 12:13 34.21817 24.31514 36710 ft 463 kts 155°
2026-04-17 12:14 34.16072 24.35068 36705 ft 464 kts 155°
2026-04-17 12:14 34.10316 24.38619 36705 ft 464 kts 156°
2026-04-17 12:15 34.04590 24.42155 36700 ft 464 kts 156°
2026-04-17 12:15 33.99008 24.46115 36696 ft 469 kts 143°
2026-04-17 12:16 33.94113 24.51349 36691 ft 471 kts 141°
2026-04-17 12:16 33.89235 24.56615 36686 ft 471 kts 141°
2026-04-17 12:17 33.84364 24.61835 36684 ft 472 kts 141°
2026-04-17 12:17 33.79460 24.67085 36678 ft 472 kts 141°
2026-04-17 12:18 33.74548 24.72339 36676 ft 473 kts 141°
2026-04-17 12:18 33.70458 24.76715 36668 ft 473 kts 141°
2026-04-17 12:19 33.65531 24.81972 36663 ft 474 kts 141°
2026-04-17 12:19 33.60583 24.87235 36656 ft 475 kts 141°
2026-04-17 12:20 33.55635 24.92506 36650 ft 476 kts 141°
2026-04-17 12:20 33.50711 24.97743 36648 ft 476 kts 142°
2026-04-17 12:21 33.45746 25.03009 36644 ft 477 kts 142°
2026-04-17 12:21 33.40774 25.08279 36643 ft 477 kts 142°
2026-04-17 12:22 33.35799 25.13547 36634 ft 477 kts 142°
2026-04-17 12:22 33.30815 25.18800 36629 ft 477 kts 142°
2026-04-17 12:23 33.25827 25.24048 36626 ft 478 kts 142°
2026-04-17 12:23 33.20837 25.29306 36620 ft 478 kts 143°
2026-04-17 12:24 33.15869 25.34538 36615 ft 478 kts 143°
2026-04-17 12:24 33.10869 25.39782 36613 ft 479 kts 143°
2026-04-17 12:25 33.05854 25.45022 36606 ft 479 kts 143°
2026-04-17 12:25 33.00864 25.50246 36598 ft 479 kts 143°
2026-04-17 12:26 32.95850 25.55482 36595 ft 479 kts 143°
2026-04-17 12:26 32.90823 25.60722 36595 ft 480 kts 144°
2026-04-17 12:27 32.85801 25.65947 36591 ft 480 kts 144°
2026-04-17 12:27 32.80769 25.71168 36589 ft 480 kts 144°
2026-04-17 12:28 32.75725 25.76387 36590 ft 480 kts 144°
2026-04-17 12:28 32.70716 25.81570 36588 ft 480 kts 144°
2026-04-17 12:29 32.65674 25.86789 36592 ft 481 kts 144°
2026-04-17 12:29 32.60625 25.92006 36589 ft 481 kts 144°
2026-04-17 12:30 32.55574 25.97204 36590 ft 481 kts 145°
2026-04-17 12:30 32.50516 26.02406 36581 ft 481 kts 145°
2026-04-17 12:31 32.45484 26.07587 36582 ft 481 kts 145°
2026-04-17 12:31 32.40415 26.12793 36590 ft 481 kts 145°
2026-04-17 12:32 32.35348 26.17991 36585 ft 482 kts 146°
2026-04-17 12:32 32.30313 26.23140 36584 ft 482 kts 146°
2026-04-17 12:33 32.25229 26.28328 36580 ft 482 kts 146°
2026-04-17 12:33 32.20149 26.33509 36578 ft 482 kts 146°
2026-04-17 12:34 32.15061 26.38699 36580 ft 483 kts 146°
2026-04-17 12:34 32.10005 26.43843 36581 ft 483 kts 147°
2026-04-17 12:35 32.04908 26.49015 36583 ft 483 kts 147°
2026-04-17 12:35 31.99800 26.54189 36584 ft 483 kts 147°
2026-04-17 12:37 31.79392 26.74796 36589 ft 484 kts 148°
2026-04-17 12:38 31.74272 26.79952 36593 ft 485 kts 148°
2026-04-17 12:38 31.69143 26.85112 36594 ft 485 kts 148°
2026-04-17 12:39 31.63997 26.90270 36594 ft 485 kts 148°
2026-04-17 12:39 31.58855 26.95413 36599 ft 486 kts 148°
2026-04-17 12:40 31.53746 27.00522 36607 ft 486 kts 148°
2026-04-17 12:40 31.48601 27.05668 36609 ft 486 kts 149°
2026-04-17 12:41 31.43439 27.10811 36607 ft 486 kts 149°
2026-04-17 12:41 31.38304 27.15912 36611 ft 486 kts 149°
2026-04-17 12:42 31.33081 27.20936 36611 ft 478 kts 156°
2026-04-17 12:42 31.30254 27.22902 36619 ft 466 kts 165°
2026-04-17 12:42 31.27302 27.24349 36619 ft 456 kts 170°
2026-04-17 12:43 31.21387 27.26961 36621 ft 456 kts 170°
2026-04-17 12:43 31.15444 27.29601 36616 ft 457 kts 170°
2026-04-17 12:44 31.09505 27.32259 36623 ft 457 kts 170°
2026-04-17 12:44 31.03556 27.34926 36630 ft 458 kts 169°
2026-04-17 12:44 31.00690 27.36560 36629 ft 472 kts 159°
2026-04-17 12:45 30.97970 27.38808 36633 ft 484 kts 152°
2026-04-17 12:45 30.92705 27.43720 36635 ft 484 kts 151°
2026-04-17 12:46 30.87425 27.48642 36636 ft 484 kts 152°
2026-04-17 12:46 30.82185 27.53503 36643 ft 484 kts 152°
2026-04-17 12:47 30.76902 27.58384 36652 ft 484 kts 152°
2026-04-17 12:47 30.71645 27.63243 36651 ft 484 kts 152°
2026-04-17 12:48 30.66378 27.68116 36656 ft 484 kts 152°
2026-04-17 12:48 30.61110 27.72979 36660 ft 483 kts 152°
2026-04-17 12:49 30.55840 27.77827 36665 ft 483 kts 152°
2026-04-17 12:49 30.50553 27.82691 36670 ft 483 kts 152°
2026-04-17 12:50 30.45319 27.87500 36674 ft 483 kts 152°
2026-04-17 12:50 30.40049 27.92339 36667 ft 483 kts 152°
2026-04-17 12:51 30.34782 27.97161 36675 ft 482 kts 152°
2026-04-17 12:51 30.29511 28.01969 36674 ft 482 kts 152°
2026-04-17 12:52 30.24234 28.06789 36676 ft 482 kts 152°
2026-04-17 12:52 30.18994 28.11567 36677 ft 482 kts 152°
2026-04-17 12:53 30.13724 28.16379 36681 ft 482 kts 152°
2026-04-17 12:53 30.08450 28.21187 36682 ft 482 kts 152°
2026-04-17 12:54 30.03162 28.25983 36683 ft 482 kts 153°
2026-04-17 12:54 29.97906 28.30738 36685 ft 482 kts 153°
2026-04-17 12:55 29.92614 28.35522 36690 ft 482 kts 153°
2026-04-17 12:55 29.87358 28.40371 36686 ft 489 kts 147°
2026-04-17 12:55 29.85003 28.43259 36696 ft 502 kts 137°
2026-04-17 12:56 29.82895 28.46419 36692 ft 504 kts 136°
2026-04-17 12:56 29.78626 28.52843 36690 ft 504 kts 136°
2026-04-17 12:57 29.74337 28.59250 36686 ft 504 kts 137°
2026-04-17 12:57 29.70041 28.65639 36690 ft 505 kts 137°
2026-04-17 12:58 29.65764 28.71994 36701 ft 505 kts 137°
2026-04-17 12:58 29.61457 28.78393 36705 ft 506 kts 136°
2026-04-17 12:59 29.57148 28.84792 36705 ft 506 kts 137°
2026-04-17 12:59 29.52856 28.91142 36701 ft 506 kts 137°
2026-04-17 13:00 29.48522 28.97550 36701 ft 507 kts 137°
2026-04-17 13:00 29.44189 29.03940 36702 ft 507 kts 137°
2026-04-17 13:01 29.39408 29.09595 36706 ft 485 kts 153°
2026-04-17 13:01 29.34033 29.14254 36699 ft 484 kts 154°
2026-04-17 13:02 29.28644 29.18928 36706 ft 485 kts 154°
2026-04-17 13:02 29.23262 29.23598 36714 ft 485 kts 154°
2026-04-17 13:03 29.17906 29.28243 36714 ft 486 kts 154°
2026-04-17 13:03 29.12504 29.32912 36713 ft 486 kts 154°
2026-04-17 13:04 29.07067 29.37506 36716 ft 484 kts 155°
2026-04-17 13:04 29.01632 29.41993 36714 ft 484 kts 155°
2026-04-17 13:05 28.96165 29.46510 36715 ft 485 kts 155°
2026-04-17 13:05 28.90720 29.51018 36717 ft 485 kts 155°
2026-04-17 13:06 28.85259 29.55553 36717 ft 485 kts 155°
2026-04-17 13:06 28.79798 29.60084 36719 ft 485 kts 155°
2026-04-17 13:07 28.75250 29.63846 36721 ft 485 kts 155°
2026-04-17 13:07 28.69773 29.68373 36726 ft 486 kts 155°
2026-04-17 13:08 28.64300 29.72887 36734 ft 486 kts 155°
2026-04-17 13:08 28.58827 29.77393 36727 ft 486 kts 155°
2026-04-17 13:09 28.53343 29.81897 36723 ft 486 kts 155°
2026-04-17 13:09 28.47853 29.86403 36724 ft 486 kts 155°
2026-04-17 13:10 28.42357 29.90911 36727 ft 486 kts 155°
2026-04-17 13:10 28.36903 29.95384 36732 ft 487 kts 155°
2026-04-17 13:11 28.31385 29.99896 36732 ft 487 kts 155°
2026-04-17 13:11 28.25916 30.04366 36733 ft 487 kts 155°
2026-04-17 13:12 28.20411 30.08863 36737 ft 487 kts 155°
2026-04-17 13:12 28.12144 30.15603 36735 ft 488 kts 155°
2026-04-17 13:13 28.06623 30.20089 36736 ft 488 kts 155°
2026-04-17 13:13 28.01131 30.24544 36740 ft 488 kts 155°
2026-04-17 13:14 27.95609 30.29026 36742 ft 488 kts 155°
2026-04-17 13:14 27.90079 30.33505 36741 ft 489 kts 155°
2026-04-17 13:15 27.84537 30.37983 36740 ft 489 kts 155°
2026-04-17 13:15 27.78996 30.42457 36742 ft 489 kts 155°
2026-04-17 13:16 27.73491 30.46909 36741 ft 490 kts 155°
2026-04-17 13:16 27.67932 30.51396 36743 ft 490 kts 155°
2026-04-17 13:17 27.62372 30.55872 36742 ft 490 kts 155°
2026-04-17 13:17 27.56839 30.60315 36741 ft 491 kts 155°
2026-04-17 13:18 27.51258 30.64796 36744 ft 491 kts 155°
2026-04-17 13:18 27.45683 30.69274 36742 ft 492 kts 155°
2026-04-17 13:19 27.40142 30.73719 36743 ft 492 kts 155°
2026-04-17 13:19 27.34558 30.78194 36742 ft 493 kts 155°
2026-04-17 13:20 27.28964 30.82663 36740 ft 493 kts 155°
2026-04-17 13:20 27.23362 30.87125 36736 ft 494 kts 155°
2026-04-17 13:21 27.17756 30.91599 36742 ft 495 kts 156°
2026-04-17 13:21 27.12132 30.96077 36745 ft 495 kts 156°
2026-04-17 13:22 27.06536 31.00519 36745 ft 495 kts 156°
2026-04-17 13:22 27.01284 31.05725 36740 ft 518 kts 138°
2026-04-17 13:23 26.96733 31.12036 36735 ft 520 kts 137°
2026-04-17 13:23 26.92171 31.18337 36734 ft 521 kts 138°
2026-04-17 13:24 26.87590 31.24629 36746 ft 521 kts 138°
2026-04-17 13:24 26.82997 31.30929 36746 ft 522 kts 138°
2026-04-17 13:25 26.78433 31.37190 36742 ft 522 kts 138°
2026-04-17 13:25 26.73836 31.43488 36746 ft 523 kts 138°
2026-04-17 13:26 26.69234 31.49793 36747 ft 523 kts 138°
2026-04-17 13:26 26.64619 31.56099 36744 ft 523 kts 138°
2026-04-17 13:27 26.60030 31.62347 36742 ft 523 kts 138°
2026-04-17 13:27 26.55408 31.68638 36739 ft 524 kts 138°
2026-04-17 13:28 26.50784 31.74930 36733 ft 524 kts 138°
2026-04-17 13:28 26.46148 31.81227 36728 ft 524 kts 138°
2026-04-17 13:29 26.41526 31.87490 36726 ft 525 kts 138°
2026-04-17 13:29 26.36890 31.93771 36725 ft 525 kts 138°
2026-04-17 13:30 26.32241 32.00057 36723 ft 525 kts 138°
2026-04-17 13:30 26.27576 32.06354 36723 ft 525 kts 138°
2026-04-17 13:31 26.22946 32.12606 36715 ft 526 kts 138°
2026-04-17 13:31 26.18286 32.18886 36719 ft 526 kts 138°
2026-04-17 13:32 26.13610 32.25175 36715 ft 526 kts 139°
2026-04-17 13:32 26.08929 32.31454 36718 ft 526 kts 139°
2026-04-17 13:33 26.04276 32.37690 36714 ft 527 kts 139°
2026-04-17 13:33 25.99596 32.43961 36705 ft 527 kts 139°
2026-04-17 13:34 25.94906 32.50233 36695 ft 527 kts 139°
2026-04-17 13:34 25.90218 32.56506 36695 ft 527 kts 139°
2026-04-17 13:35 25.85519 32.62773 36689 ft 527 kts 139°
2026-04-17 13:35 25.80819 32.69025 36694 ft 528 kts 139°
2026-04-17 13:36 25.76109 32.75277 36689 ft 528 kts 139°
2026-04-17 13:36 25.71840 32.82030 36682 ft 537 kts 131°
2026-04-17 13:37 25.69808 32.85450 36371 ft 538 kts 131°
2026-04-17 13:37 25.67750 32.88913 35994 ft 537 kts 131°
2026-04-17 13:37 25.65695 32.92367 35622 ft 535 kts 130°
2026-04-17 13:37 25.63645 32.95808 35263 ft 534 kts 130°
2026-04-17 13:38 25.61589 32.99244 34431 ft 539 kts 130°
2026-04-17 13:38 25.59524 33.02685 33641 ft 531 kts 130°
2026-04-17 13:38 25.57501 33.06063 32776 ft 522 kts 130°
2026-04-17 13:38 25.55515 33.09383 32204 ft 512 kts 130°
2026-04-17 13:39 25.53567 33.12640 31906 ft 503 kts 130°
2026-04-17 13:39 25.51649 33.15848 31511 ft 496 kts 130°
2026-04-17 13:39 25.49753 33.19015 31087 ft 491 kts 130°
2026-04-17 13:39 25.47859 33.22164 30402 ft 488 kts 130°
2026-04-17 13:40 25.45995 33.25260 29751 ft 479 kts 130°
2026-04-17 13:40 25.44163 33.28302 28988 ft 470 kts 130°
2026-04-17 13:40 25.42360 33.31293 28244 ft 463 kts 129°
2026-04-17 13:40 25.40590 33.34230 27520 ft 455 kts 129°
2026-04-17 13:41 25.38847 33.37119 26824 ft 448 kts 129°
2026-04-17 13:41 25.37121 33.39974 26310 ft 446 kts 129°
2026-04-17 13:41 25.35402 33.42815 25804 ft 443 kts 128°
2026-04-17 13:41 25.33926 33.45794 25512 ft 441 kts 116°
2026-04-17 13:42 25.33026 33.49026 25138 ft 440 kts 102°
2026-04-17 13:42 25.32756 33.52379 24742 ft 437 kts 89°
2026-04-17 13:42 25.33122 33.55714 24198 ft 437 kts 75°
2026-04-17 13:42 25.33939 33.58942 23659 ft 436 kts 73°
2026-04-17 13:43 25.34770 33.62166 23102 ft 436 kts 73°
2026-04-17 13:43 25.35591 33.65391 22474 ft 435 kts 73°
2026-04-17 13:43 25.36403 33.68614 21847 ft 435 kts 74°
2026-04-17 13:43 25.37212 33.71834 21231 ft 434 kts 74°
2026-04-17 13:44 25.38017 33.75044 20720 ft 429 kts 74°
2026-04-17 13:44 25.38789 33.78128 20574 ft 404 kts 74°
2026-04-17 13:44 25.39519 33.81046 20266 ft 386 kts 74°
2026-04-17 13:44 25.40228 33.83870 19738 ft 378 kts 74°
2026-04-17 13:45 25.40924 33.86645 19148 ft 372 kts 75°
2026-04-17 13:45 25.41612 33.89381 18553 ft 367 kts 75°
2026-04-17 13:45 25.42290 33.92081 17986 ft 362 kts 75°
2026-04-17 13:45 25.42960 33.94751 17405 ft 359 kts 75°
2026-04-17 13:46 25.43623 33.97405 16983 ft 357 kts 75°
2026-04-17 13:46 25.44281 34.00042 16562 ft 354 kts 75°
2026-04-17 13:46 25.44937 34.02671 16256 ft 352 kts 76°
2026-04-17 13:46 25.45571 34.05208 16116 ft 333 kts 75°
2026-04-17 13:47 25.46173 34.07611 15948 ft 317 kts 75°
2026-04-17 13:47 25.46949 34.09913 15196 ft 324 kts 63°
2026-04-17 13:47 25.48173 34.12011 14645 ft 323 kts 49°
2026-04-17 13:47 25.49730 34.13767 14168 ft 317 kts 37°
2026-04-17 13:48 25.51516 34.15160 13720 ft 312 kts 30°
2026-04-17 13:48 25.53324 34.16465 13272 ft 308 kts 31°
2026-04-17 13:48 25.55100 34.17754 12824 ft 303 kts 31°
2026-04-17 13:48 25.56852 34.19029 12250 ft 303 kts 31°
2026-04-17 13:49 25.58644 34.20331 11492 ft 311 kts 31°
2026-04-17 13:49 25.60463 34.21657 10760 ft 316 kts 32°
2026-04-17 13:49 25.62305 34.23009 10016 ft 317 kts 33°
2026-04-17 13:49 25.64148 34.24376 9283 ft 320 kts 33°
2026-04-17 13:50 25.65983 34.25757 8509 ft 319 kts 34°
2026-04-17 13:50 25.67806 34.27168 7752 ft 320 kts 34°
2026-04-17 13:50 25.69737 34.28346 7134 ft 313 kts 14°
2026-04-17 13:50 25.71118 34.28596 6995 ft 296 kts 359°
2026-04-17 13:51 25.73731 34.28564 6884 ft 265 kts 355°
2026-04-17 13:51 25.74921 34.28524 6894 ft 252 kts 354°
2026-04-17 13:51 25.76624 34.28554 6801 ft 243 kts
2026-04-17 13:51 25.78175 34.29239 6536 ft 239 kts 35°
2026-04-17 13:52 25.79268 34.30553 6261 ft 227 kts 63°
2026-04-17 13:52 25.79741 34.32152 6000 ft 212 kts 90°
2026-04-17 13:52 25.79626 34.33720 5759 ft 199 kts 113°
2026-04-17 13:52 25.79048 34.35061 5553 ft 189 kts 128°
2026-04-17 13:53 25.78363 34.36307 5342 ft 188 kts 127°
2026-04-17 13:53 25.77692 34.37540 5136 ft 185 kts 127°
2026-04-17 13:53 25.77032 34.38756 4936 ft 183 kts 127°
2026-04-17 13:53 25.76379 34.39958 4729 ft 182 kts 127°
2026-04-17 13:54 25.75089 34.42334 4331 ft 178 kts 126°
2026-04-17 13:54 25.74452 34.43502 4129 ft 176 kts 126°
2026-04-17 13:55 25.73197 34.45799 3741 ft 173 kts 126°
2026-04-17 13:55 25.72573 34.46932 3560 ft 170 kts 126°
2026-04-17 13:55 25.70875 34.48599 3155 ft 162 kts 150°
2026-04-17 13:56 25.68972 34.49823 2743 ft 153 kts 150°
2026-04-17 13:56 25.68078 34.50403 2550 ft 145 kts 149°
2026-04-17 13:56 25.67228 34.50955 2391 ft 140 kts 149°
2026-04-17 13:57 25.66398 34.51493 2203 ft 137 kts 149°
2026-04-17 13:57 25.65575 34.52022 2022 ft 136 kts 149°
2026-04-17 13:57 25.63945 34.53066 1674 ft 135 kts 149°
2026-04-17 13:58 25.63138 34.53584 1500 ft 134 kts 149°
2026-04-17 13:58 25.61544 34.54634 1168 ft 133 kts 146°
2026-04-17 13:58 25.60755 34.55174 1008 ft 134 kts 149°
2026-04-17 13:59 25.59127 34.56199 710 ft 134 kts 147°
2026-04-17 13:59 25.58310 34.56716 500 ft 137 kts 148°
2026-04-17 13:59 25.57502 34.57238 390 ft 133 kts 148°
2026-04-17 14:00 25.56700 34.57746 280 ft 132 kts 147°
2026-04-17 14:00 25.56016 34.58186 261 ft 91 kts 150°
2026-04-17 14:00 25.55616 34.58442 260 ft 45 kts 150°
2026-04-17 14:00 25.55370 34.58599 256 ft 37 kts 150°
2026-04-17 14:01 25.55184 34.58717 255 ft 27 kts 150°
2026-04-17 14:01 25.55062 34.58801 258 ft 12 kts 135°
2026-04-17 14:01 25.55079 34.58894 256 ft 14 kts 59°
2026-04-17 14:01 25.55125 34.58982 255 ft 14 kts 59°
2026-04-17 14:02 25.55177 34.59082 244 ft 13 kts 62°
2026-04-17 14:02 25.55234 34.59139 242 ft 10 kts
2026-04-17 14:02 25.55294 34.59106 242 ft 9 kts 329°
2026-04-17 14:02 25.55329 34.59084 242 ft 3 kts 329°
2026-04-17 14:03 25.55346 34.59080 242 ft 2 kts 12°
2026-04-17 14:03 25.55359 34.59099 242 ft 5 kts 60°
2026-04-17 14:03 25.55376 34.59131 242 ft 2 kts 60°
2026-04-17 14:03 25.55377 34.59134 242 ft 0 kts 60°
2026-04-17 14:04 25.55384 34.59147 242 ft 1 kts 59°
2026-04-17 14:04 25.55384 34.59148 242 ft 0 kts 59°